Weather History for KBKW - December, 2012

Change the Weather History Date:

Saturday, December 22, 2012

  Actual Average Record
Temperature  
Mean Temperature 24 °F 33 °F  
Max Temperature 29 °F 41 °F 68 °F (2013)
Min Temperature 19 °F 25 °F -13 °F (1989)
Degree Days  
Heating Degree Days 41 32  
Month to date heating degree days 464 656  
Since 1 July heating degree days 1718 1796  
Cooling Degree Days 0 0  
Month to date cooling degree days 0 0  
Year to date cooling degree days 761 557  
Moisture  
Dew Point 18 °F    
Average Humidity 76    
Maximum Humidity 88    
Minimum Humidity 63    
Precipitation  
Precipitation 0.01 in 0.10 in 1.50 in (1981)
Month to date precipitation 2.08 2.15  
Year to date precipitation 43.26 40.34  
Snow  
Snow 1.40 in - - ()
Month to date snowfall 7.7  
Since 1 September snowfall 30.6  
Snow Depth 6.00 in    
Sea Level Pressure  
Sea Level Pressure 30.06 in    
Wind  
Wind Speed 11 mph (WNW)    
Max Wind Speed 26 mph    
Max Gust Speed 35 mph    
Visibility 6 miles    
Events Snow    
T = Trace of Precipitation, MM = Missing Value Source: NWS Daily Summary

Daily Weather History Graph

Daily Weather History Graph

Search for Another Location

Airport or City:

Trip Planner

Search our weather history database for the weather conditions in past years. The results will help you decide how hot, cold, wet, or windy it might be!

Date:

Astronomy

Dec. 22, 2012 Rise Set
Actual Time 7:36 AM EST 5:09 PM EST
Civil Twilight 7:07 AM EST 5:39 PM EST
Nautical Twilight 6:34 AM EST 6:12 PM EST
Astronomical Twilight 6:02 AM EST 6:44 PM EST
Moon 1:23 PM EST (12/22) 2:24 AM EST (12/22)
Length of Visible Light 10h 31m
Length of Day
9h 32m
Waxing Gibbous, 73% of the Moon is Illuminated
Dec 22
Waxing Gibbous
Dec 28
Full
Jan 4
Last Quarter
Jan 11
New
Jan 18
First Quarter

Hourly Weather History & Observations

Time (EST) Temp. Windchill Dew Point Humidity Pressure Visibility Wind Dir Wind Speed Gust Speed Precip Events Conditions
12:18 AM 23.0 °F 8.7 °F 19.4 °F 86% 29.83 in 1.8 mi WNW 18.4 mph 29.9 mph 0.00 in Snow Light Snow
12:33 AM 23.0 °F 10.1 °F 19.4 °F 86% 29.83 in 2.0 mi WNW 15.0 mph 28.8 mph 0.00 in Snow Light Snow
12:47 AM 24.8 °F 11.1 °F 19.4 °F 80% 29.84 in 1.8 mi WNW 18.4 mph 26.5 mph 0.00 in Snow Light Snow
12:51 AM 24.1 °F 10.6 °F 19.9 °F 84% 29.95 in 1.5 mi WNW 17.3 mph 26.5 mph 0.00 in Snow Light Snow
1:09 AM 23.0 °F 9.2 °F 19.4 °F 86% 29.84 in 1.5 mi WNW 17.3 mph 23.0 mph 0.00 in Snow Light Snow
1:17 AM 24.8 °F 11.5 °F 19.4 °F 80% 29.84 in 1.5 mi WNW 17.3 mph 27.6 mph 0.00 in Snow Light Snow
1:51 AM 24.1 °F 11.0 °F 19.9 °F 84% 29.97 in 1.2 mi WNW 16.1 mph 25.3 mph 0.01 in Snow Light Snow
2:06 AM 24.8 °F 12.4 °F 19.4 °F 80% 29.86 in 1.2 mi WNW 15.0 mph 31.1 mph N/A Snow Light Snow
2:26 AM 24.8 °F 10.0 °F 19.4 °F 80% 29.87 in 1.0 mi WNW 21.9 mph 32.2 mph 0.00 in Snow Light Snow
2:44 AM 24.8 °F 11.5 °F 19.4 °F 80% 29.88 in 1.8 mi WNW 17.3 mph 32.2 mph 0.00 in Snow Light Snow
2:51 AM 24.1 °F 9.8 °F 19.9 °F 84% 30.01 in 2.5 mi NW 19.6 mph 31.1 mph 0.00 in Snow Light Snow
3:15 AM 24.8 °F 11.1 °F 19.4 °F 80% 29.90 in 3.0 mi NW 18.4 mph 32.2 mph 0.00 in Snow Light Snow
3:29 AM 24.8 °F 10.3 °F 19.4 °F 80% 29.91 in 2.5 mi NW 20.7 mph 34.5 mph 0.00 in Snow Light Snow
3:38 AM 24.8 °F 11.1 °F 19.4 °F 80% 29.92 in 3.0 mi NW 18.4 mph 34.5 mph 0.00 in Snow Light Snow
3:51 AM 25.0 °F 10.6 °F 19.9 °F 81% 30.04 in 2.5 mi NW 20.7 mph 34.5 mph 0.00 in Snow Light Snow
4:06 AM 24.8 °F 10.3 °F 19.4 °F 80% 29.93 in 3.0 mi WNW 20.7 mph 34.5 mph 0.00 in Snow Light Snow
4:51 AM 24.8 °F 12.9 °F 19.4 °F 80% 29.96 in 5.0 mi WNW 13.8 mph 24.2 mph N/A Snow Light Snow
5:16 AM 24.8 °F 11.9 °F 19.4 °F 80% 29.97 in 4.0 mi WNW 16.1 mph 26.5 mph 0.00 in Snow Light Snow
5:51 AM 24.1 °F 10.6 °F 19.0 °F 81% 30.10 in 4.0 mi NW 17.3 mph 24.2 mph 0.00 in Snow Light Snow
6:51 AM 24.1 °F 10.6 °F 19.0 °F 81% 30.13 in 4.0 mi WNW 17.3 mph 26.5 mph 0.00 in Snow Light Snow
7:51 AM 24.1 °F 11.5 °F 19.0 °F 81% 30.16 in 7.0 mi WNW 15.0 mph - 0.00 in Snow Light Snow
8:51 AM 24.1 °F 12.5 °F 19.0 °F 81% 30.20 in 2.5 mi WNW 12.7 mph 24.2 mph 0.00 in Snow Light Snow
9:22 AM 24.8 °F 14.0 °F 19.4 °F 80% 30.09 in 3.0 mi WNW 11.5 mph - 0.00 in Snow Light Snow
9:51 AM 24.1 °F 13.7 °F 18.0 °F 77% 30.23 in 6.0 mi WNW 10.4 mph 19.6 mph 0.00 in Snow Light Snow
10:51 AM 24.1 °F 12.5 °F 17.1 °F 75% 30.24 in 10.0 mi West 12.7 mph 27.6 mph 0.00 in   Overcast
11:51 AM 25.0 °F 14.2 °F 18.0 °F 75% 30.22 in 10.0 mi West 11.5 mph - N/A   Overcast
12:51 PM 26.1 °F 16.8 °F 18.0 °F 71% 30.20 in 10.0 mi WNW 9.2 mph - N/A   Overcast
1:27 PM 24.8 °F 12.9 °F 17.6 °F 74% 30.07 in 10.0 mi NW 13.8 mph - N/A   Scattered Clouds
1:51 PM 26.6 °F 16.2 °F 17.6 °F 69% 30.06 in 10.0 mi WNW 11.5 mph - N/A   Partly Cloudy
2:51 PM 28.0 °F 18.1 °F 18.0 °F 66% 30.17 in 10.0 mi NW 11.5 mph - N/A   Clear
3:51 PM 28.9 °F 20.4 °F 17.1 °F 61% 30.17 in 10.0 mi WNW 9.2 mph - N/A   Clear
4:51 PM 27.0 °F 17.3 °F 17.1 °F 66% 30.19 in 10.0 mi WNW 10.4 mph - N/A   Clear
5:51 PM 26.1 °F 17.6 °F 17.1 °F 69% 30.20 in 10.0 mi West 8.1 mph - N/A   Clear
6:51 PM 24.1 °F 19.7 °F 16.0 °F 71% 30.21 in 10.0 mi West 3.5 mph - N/A   Clear
7:51 PM 24.1 °F 19.7 °F 17.1 °F 75% 30.21 in 10.0 mi West 3.5 mph - N/A   Clear
8:51 PM 24.1 °F 18.2 °F 17.1 °F 75% 30.20 in 10.0 mi Variable 4.6 mph - N/A   Clear
9:51 PM 23.0 °F 15.8 °F 16.0 °F 74% 30.20 in 10.0 mi West 5.8 mph - N/A   Clear
10:51 PM 23.0 °F 17.0 °F 16.0 °F 74% 30.20 in 10.0 mi West 4.6 mph - N/A   Clear
11:51 PM 23.0 °F - 15.1 °F 72% 30.19 in 10.0 mi Calm Calm - N/A   Clear